Location: Cucq
(50.4773°N, 1.6202°E)
Time: 15:57:34
(UTC+00:00)

Meteor 2-13 Rocket - Pass Details

Date: 07 August 2020
Orbit: 937 x 957 km, 82.5° (Epoch: 19 September)

Event Time Altitude Azimuth Distance (km) Brightness Sun altitude
Rises 01:22:47 0° 348° (NNW) 3,618 8.4 -20.7°
Reaches altitude 10° 01:25:17 10° 347° (NNW) 2,671 7.6 -20.6°
Maximum altitude 01:31:22 75° 264° (W) 982 4.4 -20.2°
Enters shadow 01:34:10 34° 185° (S) 1,509 5.0 -20.0°
